Regional Weather Roundup
Issued by NWS Albany, NY

Home | Current Version | Previous Version | Text Only | Print | Product List | Glossary On
Versions: 1 2 3 4 5 6 7 8 9 10 11 12 13 14 15 16 17 18 19 20 21 22 23 24 25 26 27 28 29 30 31 32 33 34 35 36 37 38 39 40 41 42 43 44 45 46 47 48 49 50
000
ASUS41 KALY 031610
RWRALY

NEW YORK STATE HOURLY WEATHER ROUNDUP
NATIONAL WEATHER SERVICE ALBANY NY
1200 PM EDT FRI JUL 03 2015

NOTE: "FAIR" INDICATES FEW OR NO CLOUDS BELOW 12,000 FEET WITH NO
SIGNIFICANT WEATHER AND/OR NO OBSTRUCTIONS TO VISIBILITY.

NYZ032-033-038>043-046>054-057>066-NYZ062>081-031700-
EAST


CITY           SKY/WX    TMP DP  RH WIND       PRES   REMARKS
ALBANY         MOSUNNY   73  43  33 CALM      30.01S
GLENS FALLS    SUNNY     73  49  42 E8        29.99F
POUGHKEEPSIE   SUNNY     74  53  48 VRB6      29.99F
MONTGOMERY     SUNNY     73  53  49 NE7       30.01S
WHITE PLAINS   SUNNY     74  50  42 VRB3      30.00R
ISLIP          MOSUNNY   76  51  41 VRB6      29.97S
NEW YORK CITY  MOSUNNY   76  49  38 W3        29.99S
CENTRAL PARK   SUNNY     77  50  38 E7        30.02S
$$

NYZ005>009-017-018-044>046-055-056-031700-
CENTRAL


CITY           SKY/WX    TMP DP  RH WIND       PRES   REMARKS
FULTON         SUNNY     71  54  54 VRB3      30.02S
SYRACUSE       MOSUNNY   72  51  47 VRB3      30.01F
ROME           SUNNY     69  47  45 S5        30.03S
ELMIRA         SUNNY     71  48  43 SE3       30.02F
BINGHAMTON     SUNNY     65  44  46 CALM      30.05S
MONTICELLO     SUNNY     70  48  46 NW6       30.04S
$$

NYZ026>034-041>043-031700-
NORTH


CITY           SKY/WX    TMP DP  RH WIND       PRES   REMARKS
WATERTOWN      SUNNY     68  56  65 W12       30.01S
FORT DRUM      NOT AVBL
MASSENA        SUNNY     73  51  46 W5        29.99S
SARANAC LAKE   MOSUNNY   68  41  37 VRB3      30.00F
PLATTSBURGH    MOSUNNY   70  50  49 SE13      29.97S
$$

NYZ001>004-010>016-019>021-031700-
WEST


CITY           SKY/WX    TMP DP  RH WIND       PRES   REMARKS
NIAGARA FALLS  MOSUNNY   70  47  43 VRB3      30.00F
BUFFALO        MOSUNNY   70  45  40 SW7       30.01F
DUNKIRK        SUNNY     70  53  54 N9        30.00F
JAMESTOWN      SUNNY     64  48  55 NE7       30.02F
WELLSVILLE     SUNNY     67  49  52 SE5       30.05F
ROCHESTER      MOSUNNY   71  46  40 VRB5      30.02F
PENN YAN       SUNNY     70  46  42 SE6       30.03F
$$

             KEY
       WCI = WIND CHILL INDEX
       VSB = VISIBILITY
       HX  = HEAT INDEX
$$



USA.gov is the U.S. government's official web portal to all federal, state and local government web resources and services.